1491325200.1,20865,15.13,73910.3,-2.29,-3.23,-3.31,0,*53
1491325201.32,20866,15.13,73902.3,-2.29,-3.19,-3.35,0,*5D
1491325202.54,20867,15.13,73908.5,-2.29,-3.11,-3.23,0,*53
1491325203.75,20868,15.13,73922.0,-2.29,-3.07,-3.23,0,*5B
1491325204.97,20869,15.13,73914.0,-2.29,-3.07,-3.35,0,*5D
1491325206.22,20870,15.13,73902.3,-2.29,-3.35,-3.59,0,*5E
1491325207.47,20871,15.13,73904.8,-2.29,-3.23,-3.43,0,*53
1491325208.71,20872,15.13,73914.5,-2.29,-3.31,-3.55,0,*54
1491325209.95,20873,15.13,73904.0,-2.29,-3.35,-3.47,0,*52
1491325211.15,20874,15.13,73904.5,-2.31,-3.11,-3.23,0,*58
1491325212.35,20875,15.06,73904.0,-2.31,-3.11,-3.31,0,*5A
1491325213.55,20876,15.13,73906.8,-2.31,-3.11,-3.31,0,*59
1491325214.76,20877,15.06,73902.8,-2.31,-3.23,-3.43,0,*5C
1491325215.99,20878,15.13,73906.3,-2.31,-3.35,-3.55,0,*53
1491325217.2,20879,15.13,73908.8,-2.31,-3.23,-3.47,0,*56
1491325218.45,20880,15.06,73902.0,-2.29,-3.11,-3.43,0,*5C
1491325219.65,20881,15.13,73902.3,-2.31,-3.19,-3.31,0,*59
1491325220.87,20882,15.06,73900.3,-2.29,-3.11,-3.31,0,*5B
1491325222.09,20883,15.13,73898.3,-2.29,-3.11,-3.31,0,*5A
1491325223.3,20884,15.13,73902.0,-2.29,-3.23,-3.35,0,*58
1491325224.55,20885,15.13,73908.8,-2.29,-3.31,-3.43,0,*5B
1491325225.79,20886,15.13,73904.5,-2.29,-3.23,-3.43,0,*5B
1491325227.06,20887,15.13,73908.0,-2.29,-3.43,-3.55,0,*5B
1491325228.3,20888,15.13,73906.5,-2.29,-3.35,-3.55,0,*55
1491325229.54,20889,15.13,73904.0,-2.29,-3.23,-3.47,0,*50
1491325230.78,20890,15.13,73904.3,-2.29,-3.35,-3.55,0,*5C
1491325232.0,20891,15.13,73894.5,-2.29,-3.19,-3.31,0,*51
1491325233.22,20892,15.13,73894.0,-2.29,-3.11,-3.31,0,*5A
1491325234.41,20893,15.13,73892.8,-2.31,-3.11,-3.23,0,*51
1491325235.61,20894,15.13,73894.3,-2.31,-3.11,-3.23,0,*56
1491325236.8,20895,15.13,73884.3,-2.31,-3.11,-3.23,0,*57
1491325238.0,20896,15.13,73888.5,-2.31,-3.23,-3.31,0,*56
1491325239.2,20897,15.13,73906.3,-2.31,-3.19,-3.31,0,*5E
1491325240.44,20898,15.13,73890.5,-2.31,-3.43,-3.47,0,*5F
1491325241.67,20899,15.13,73902.0,-2.31,-3.35,-3.55,0,*5C
1491325242.91,20900,15.13,73900.5,-2.31,-3.43,-3.55,0,*5C
1491325244.13,20901,15.13,73894.8,-2.31,-3.23,-3.43,0,*5C
1491325245.32,20902,15.13,73892.5,-2.31,-3.11,-3.23,0,*58
1491325246.53,20903,15.13,73896.3,-2.31,-3.19,-3.35,0,*56
1491325247.75,20904,15.13,73892.5,-2.31,-3.23,-3.43,0,*59
1491325248.97,20905,15.13,73888.3,-2.31,-3.31,-3.43,0,*5B
1491325250.22,20906,15.13,73888.5,-2.29,-3.31,-3.47,0,*55
1491325251.41,20907,15.13,73894.5,-2.31,-3.19,-3.31,0,*56
1491325252.64,20908,15.13,73882.5,-2.33,-3.23,-3.39,0,*5A
1491325253.86,20909,15.13,73876.0,-2.33,-3.15,-3.35,0,*52
1491325255.06,20910,15.13,73882.0,-2.31,-3.23,-3.35,0,*5D
1491325256.28,20911,15.13,73874.5,-2.33,-3.23,-3.35,0,*5E
1491325257.48,20912,15.13,73874.8,-2.31,-3.11,-3.23,0,*59
1491325258.67,20913,15.13,73886.5,-2.31,-3.11,-3.23,0,*58
1491325259.87,20914,15.13,73888.3,-2.31,-3.11,-3.23,0,*5F
1491325261.06,20915,15.13,73890.8,-2.31,-3.23,-3.31,0,*5C
1491325262.28,20916,15.13,73898.8,-2.31,-3.31,-3.47,0,*5D
1491325263.51,20917,15.13,73898.5,-2.31,-3.31,-3.43,0,*58
1491325264.71,20918,15.13,73898.3,-2.31,-3.23,-3.35,0,*55
1491325265.93,20919,15.13,73892.8,-2.29,-3.19,-3.31,0,*50
1491325267.13,20920,15.13,73896.8,-2.31,-3.31,-3.35,0,*5D
1491325268.33,20921,15.13,73904.5,-2.31,-3.23,-3.35,0,*5F
1491325269.58,20922,15.13,73898.0,-2.33,-3.27,-3.47,0,*5F
1491325270.78,20923,15.13,73892.8,-2.31,-3.11,-3.35,0,*5C
1491325271.98,20924,15.13,73902.8,-2.31,-3.11,-3.19,0,*55
1491325273.18,20925,15.13,73906.0,-2.31,-3.11,-3.19,0,*54
1491325274.4,20926,15.13,73906.8,-2.33,-3.11,-3.15,0,*59
1491325275.59,20927,15.13,73900.8,-2.31,-3.11,-3.23,0,*5F
1491325276.79,20928,15.13,73902.0,-2.31,-3.11,-3.23,0,*50
1491325277.99,20929,15.13,73910.3,-2.31,-3.19,-3.31,0,*5A
1491325279.21,20930,15.13,73908.0,-2.29,-3.19,-3.31,0,*5B
1491325280.41,20931,15.13,73902.5,-2.31,-3.19,-3.31,0,*53
1491325281.61,20932,15.13,73896.0,-2.31,-3.19,-3.35,0,*54
1491325282.81,20933,15.13,73892.3,-2.31,-3.19,-3.35,0,*55
1491325284.01,20934,15.13,73894.5,-2.31,-3.23,-3.35,0,*5B
1491325285.21,20935,15.13,73894.3,-2.31,-3.31,-3.35,0,*59
1491325286.41,20936,15.13,73892.8,-2.31,-3.11,-3.31,0,*5C
1491325287.61,20937,15.13,73900.0,-2.31,-3.11,-3.23,0,*5E
1491325288.81,20938,15.13,73896.8,-2.31,-3.19,-3.31,0,*5A
1491325290.03,20939,15.13,73890.8,-2.33,-3.15,-3.35,0,*51
1491325291.23,20940,15.13,73900.5,-2.31,-3.23,-3.39,0,*54
1491325292.45,20941,15.13,73882.3,-2.31,-3.35,-3.47,0,*5B
1491325293.65,20942,15.13,73882.8,-2.31,-3.23,-3.35,0,*5A
1491325294.85,20943,15.13,73886.0,-2.31,-3.19,-3.35,0,*52
1491325296.08,20944,15.13,73880.0,-2.33,-3.15,-3.39,0,*57
1491325297.28,20945,15.13,73884.3,-2.31,-3.19,-3.35,0,*54
1491325298.5,20946,15.13,73884.0,-2.31,-3.23,-3.43,0,*5F
1491325299.7,20947,15.13,73894.3,-2.31,-3.23,-3.35,0,*5F
1491325300.9,20948,15.13,73890.5,-2.31,-3.23,-3.35,0,*50
1491325302.12,20949,15.13,73896.8,-2.33,-3.15,-3.35,0,*56
1491325303.32,20950,15.13,73898.0,-2.31,-3.11,-3.19,0,*56
1491325304.52,20951,15.13,73892.5,-2.31,-3.11,-3.19,0,*57
1491325305.72,20952,15.13,73896.8,-2.31,-3.11,-3.19,0,*54
1491325306.92,20953,15.13,73904.3,-2.31,-3.19,-3.31,0,*57
1491325308.11,20954,15.13,73898.3,-2.31,-3.11,-3.23,0,*5B
1491325309.31,20955,15.13,73898.8,-2.31,-3.11,-3.11,0,*5B
1491325310.51,20956,15.13,73904.5,-2.31,-3.11,-3.31,0,*5A
1491325311.71,20957,15.13,73904.3,-2.31,-3.11,-3.23,0,*58
1491325312.9,20958,15.13,73894.8,-2.31,-3.11,-3.23,0,*57
1491325314.12,20959,15.13,73896.5,-2.29,-3.11,-3.31,0,*5C
1491325315.32,20960,15.13,73900.0,-2.31,-3.11,-3.31,0,*5F
1491325316.57,20961,15.13,73898.0,-2.33,-3.35,-3.47,0,*5B
1491325317.77,20962,15.13,73890.0,-2.31,-3.11,-3.35,0,*59
1491325319.02,20963,15.13,73898.5,-2.29,-3.31,-3.47,0,*56
1491325320.26,20964,15.13,73902.3,-2.29,-3.23,-3.43,0,*56
1491325321.48,20965,15.13,73894.0,-2.31,-3.31,-3.47,0,*59
1491325322.7,20966,15.13,73892.0,-2.31,-3.31,-3.55,0,*59
1491325323.92,20967,15.13,73894.3,-2.31,-3.23,-3.43,0,*5C
1491325325.17,20968,15.13,73886.0,-2.31,-3.43,-3.59,0,*5E
1491325326.42,20969,15.13,73894.5,-2.33,-3.39,-3.59,0,*50
1491325327.67,20970,15.13,73894.8,-2.33,-3.27,-3.47,0,*58
1491325328.89,20971,15.13,73898.8,-2.31,-3.35,-3.55,0,*5B
1491325330.12,20972,15.13,73892.5,-2.31,-3.35,-3.55,0,*58
1491325331.34,20973,15.13,73894.3,-2.31,-3.35,-3.55,0,*59
1491325332.56,20974,15.13,73892.5,-2.31,-3.35,-3.47,0,*5D
1491325333.81,20975,15.13,73898.8,-2.33,-3.39,-3.59,0,*5D
1491325335.08,20976,15.13,73892.3,-2.33,-3.59,-3.71,0,*52
1491325336.35,20977,15.13,73892.5,-2.33,-3.51,-3.63,0,*58
1491325337.61,20978,15.13,73894.3,-2.31,-3.43,-3.59,0,*5F
1491325338.88,20979,15.13,73900.3,-2.33,-3.51,-3.71,0,*55
1491325340.15,20980,15.13,73900.5,-2.33,-3.59,-3.71,0,*5B
1491325341.39,20981,15.13,73898.0,-2.31,-3.59,-3.71,0,*58
1491325342.65,20982,15.13,73898.5,-2.33,-3.63,-3.75,0,*54
1491325343.9,20983,15.13,73902.5,-2.33,-3.63,-3.83,0,*5C
1491325345.15,20984,15.13,73904.8,-2.31,-3.59,-3.71,0,*5D
1491325346.4,20985,15.13,73894.5,-2.33,-3.63,-3.87,0,*5E
1491325347.67,20986,15.13,73894.8,-2.33,-3.51,-3.71,0,*55
1491325348.94,20987,15.13,73886.5,-2.33,-3.47,-3.63,0,*50
1491325350.17,20988,15.13,73902.0,-2.35,-3.51,-3.75,0,*59
1491325351.41,20989,15.13,73890.3,-2.35,-3.47,-3.71,0,*5B
1491325352.64,20990,15.13,73892.5,-2.35,-3.35,-3.59,0,*5C
1491325353.86,20991,15.13,73900.5,-2.35,-3.27,-3.59,0,*5E
1491325355.09,20992,15.13,73886.3,-2.35,-3.35,-3.59,0,*5E
1491325356.34,20993,15.13,73892.8,-2.35,-3.47,-3.63,0,*53
1491325357.56,20994,15.13,73882.3,-2.35,-3.35,-3.59,0,*58
1491325358.79,20995,15.13,73886.0,-2.35,-3.51,-3.75,0,*55
1491325360.02,20996,15.13,73884.8,-2.35,-3.47,-3.75,0,*51
1491325361.25,20997,15.13,73884.0,-2.35,-3.47,-3.75,0,*50
1491325362.47,20998,15.13,73886.3,-2.35,-3.35,-3.63,0,*5D
1491325363.74,20999,15.13,73894.3,-2.33,-3.51,-3.71,0,*5B
1491325364.98,21000,15.13,73890.5,-2.35,-3.47,-3.71,0,*52
1491325366.21,21001,15.13,73884.0,-2.35,-3.27,-3.59,0,*5F
1491325367.43,21002,15.13,73890.8,-2.35,-3.27,-3.51,0,*54
1491325368.65,21003,15.13,73876.8,-2.35,-3.23,-3.59,0,*59
1491325369.88,21004,15.13,73876.8,-2.35,-3.47,-3.83,0,*5B
1491325371.1,21005,15.13,73890.0,-2.35,-3.47,-3.83,0,*5A
1491325372.35,21006,15.13,73886.3,-2.37,-3.55,-3.87,0,*5C
1491325373.57,21007,15.13,73902.5,-2.35,-3.51,-3.83,0,*5F
1491325374.82,21008,15.13,73890.0,-2.37,-3.67,-3.87,0,*53
1491325376.05,21009,15.13,73888.3,-2.35,-3.51,-3.83,0,*51
1491325377.27,21010,15.13,73884.5,-2.35,-3.63,-3.87,0,*5C
1491325378.5,21011,15.13,73892.0,-2.35,-3.47,-3.75,0,*56
1491325379.72,21012,15.13,73886.3,-2.35,-3.51,-3.83,0,*5B
1491325380.95,21013,15.13,73894.3,-2.35,-3.47,-3.75,0,*54
1491325382.18,21014,15.13,73880.0,-2.35,-3.63,-3.83,0,*5C
1491325383.43,21015,15.13,73880.0,-2.37,-3.63,-3.91,0,*5C
1491325384.64,21016,15.13,73882.0,-2.35,-3.39,-3.75,0,*58
1491325385.89,21017,15.13,73882.8,-2.37,-3.51,-3.79,0,*59
1491325387.13,21018,15.13,73874.5,-2.35,-3.47,-3.71,0,*5B
1491325388.36,21019,15.13,73872.8,-2.35,-3.47,-3.75,0,*5E
1491325389.57,21020,15.13,73894.3,-2.35,-3.39,-3.75,0,*5D
1491325390.8,21021,15.13,73882.8,-2.35,-3.51,-3.75,0,*52
1491325392.02,21022,15.13,73888.5,-2.35,-3.51,-3.83,0,*58
1491325393.28,21023,15.13,73888.5,-2.37,-3.51,-3.79,0,*5E
1491325394.5,21024,15.13,73894.0,-2.35,-3.47,-3.75,0,*50
1491325395.72,21025,15.13,73886.8,-2.35,-3.39,-3.71,0,*5C
1491325396.97,21026,15.13,73878.8,-2.37,-3.43,-3.75,0,*54
1491325398.2,21027,15.13,73872.0,-2.35,-3.39,-3.63,0,*5D
1491325399.41,21028,15.13,73888.8,-2.35,-3.39,-3.71,0,*51
1491325400.67,21029,15.13,73886.5,-2.37,-3.43,-3.75,0,*5B
1491325401.89,21030,15.13,73888.3,-2.35,-3.39,-3.63,0,*5B
1491325403.11,21031,15.13,73900.5,-2.35,-3.39,-3.63,0,*5A
1491325404.34,21032,15.13,73894.5,-2.37,-3.31,-3.75,0,*54
1491325405.58,21033,15.13,73892.8,-2.37,-3.39,-3.67,0,*5E
1491325406.82,21034,15.13,73888.8,-2.37,-3.39,-3.75,0,*5A
1491325408.06,21035,15.13,73892.3,-2.37,-3.43,-3.83,0,*5F
1491325409.28,21036,15.13,73894.0,-2.35,-3.39,-3.71,0,*5E
1491325410.51,21037,15.13,73892.5,-2.37,-3.39,-3.75,0,*59
1491325411.74,21038,15.13,73890.3,-2.35,-3.27,-3.63,0,*5C
1491325412.96,21039,15.13,73894.0,-2.35,-3.35,-3.63,0,*5E
1491325414.21,21040,15.13,73892.5,-2.33,-3.27,-3.51,0,*54
1491325415.43,21041,15.13,73896.3,-2.35,-3.35,-3.51,0,*50
1491325416.66,21042,15.13,73902.5,-2.35,-3.27,-3.59,0,*58
1491325417.9,21043,15.13,73894.0,-2.37,-3.39,-3.63,0,*5D
1491325419.15,21044,15.13,73894.8,-2.37,-3.31,-3.67,0,*56
1491325420.37,21045,15.13,73898.5,-2.35,-3.35,-3.63,0,*55
1491325421.6,21046,15.06,73890.3,-2.35,-3.35,-3.59,0,*5F
1491325422.82,21047,15.13,73892.0,-2.35,-3.27,-3.51,0,*55
1491325424.05,21048,15.06,73894.3,-2.35,-3.35,-3.59,0,*51
1491325425.27,21049,15.06,73886.5,-2.35,-3.35,-3.63,0,*59
1491325426.49,21050,15.06,73888.3,-2.35,-3.39,-3.71,0,*5E
1491325427.73,21051,15.13,73894.8,-2.37,-3.39,-3.67,0,*5A
1491325428.93,21052,15.06,73890.3,-2.35,-3.39,-3.75,0,*58
1491325430.16,21053,15.13,73890.5,-2.35,-3.27,-3.51,0,*50
1491325431.41,21054,15.13,73890.0,-2.37,-3.51,-3.75,0,*52
1491325432.66,21055,15.13,73890.0,-2.33,-3.39,-3.63,0,*5E
1491325433.91,21056,15.13,73892.0,-2.37,-3.39,-3.67,0,*5D
1491325435.13,21057,15.13,73902.3,-2.35,-3.27,-3.59,0,*5C
1491325436.35,21058,15.13,73898.0,-2.35,-3.23,-3.51,0,*5F
1491325437.58,21059,15.06,73890.0,-2.35,-3.35,-3.59,0,*51
1491325438.8,21060,15.13,73894.3,-2.35,-3.39,-3.63,0,*5E
1491325440.04,21061,15.06,73896.0,-2.37,-3.31,-3.55,0,*50
1491325441.26,21062,15.13,73900.8,-2.35,-3.31,-3.63,0,*54
1491325442.49,21063,15.06,73890.0,-2.35,-3.35,-3.59,0,*58
1491325443.74,21064,15.13,73892.5,-2.37,-3.31,-3.55,0,*55
1491325444.95,21065,15.06,73892.8,-2.35,-3.23,-3.59,0,*59
1491325446.2,21066,15.13,73898.5,-2.33,-3.27,-3.51,0,*50
1491325447.45,21067,15.06,73894.8,-2.33,-3.27,-3.47,0,*56
1491325448.66,21068,15.06,73894.0,-2.35,-3.23,-3.47,0,*5B
1491325449.91,21069,15.06,73896.3,-2.35,-3.47,-3.71,0,*5D
1491325451.14,21070,15.13,73890.8,-2.35,-3.59,-3.75,0,*5E
1491325452.41,21071,15.13,73888.8,-2.37,-3.51,-3.63,0,*52
1491325453.63,21072,15.06,73884.3,-2.35,-3.39,-3.59,0,*54
1491325454.88,21073,15.06,73902.0,-2.33,-3.27,-3.51,0,*54
1491325456.13,21074,15.06,73896.5,-2.33,-3.35,-3.51,0,*50
1491325457.35,21075,15.06,73894.5,-2.35,-3.39,-3.51,0,*5B
1491325458.55,21076,15.13,73898.0,-2.35,-3.15,-3.39,0,*58
1491325459.76,21077,15.13,73892.3,-2.35,-3.15,-3.39,0,*59
1491325460.97,21078,15.13,73882.3,-2.35,-3.23,-3.47,0,*5A
1491325462.19,21079,15.13,73884.3,-2.33,-3.23,-3.39,0,*54
1491325463.42,21080,15.06,73884.0,-2.35,-3.35,-3.59,0,*55
1491325464.64,21081,15.06,73900.8,-2.35,-3.39,-3.51,0,*50
1491325465.86,21082,15.13,73894.8,-2.35,-3.27,-3.51,0,*5C
1491325467.09,21083,15.06,73890.8,-2.35,-3.39,-3.59,0,*5A
1491325468.31,21084,15.06,73882.3,-2.35,-3.27,-3.59,0,*52
1491325469.56,21085,15.06,73890.5,-2.37,-3.19,-3.43,0,*57
1491325470.78,21086,15.06,73900.0,-2.35,-3.27,-3.51,0,*58
1491325472.03,21087,15.06,73896.3,-2.35,-3.47,-3.63,0,*5E
1491325473.27,21088,15.06,73894.0,-2.35,-3.47,-3.71,0,*52
1491325474.54,21089,15.06,73890.8,-2.37,-3.43,-3.67,0,*52
1491325475.79,21090,15.06,73894.5,-2.37,-3.31,-3.63,0,*5B
1491325477.01,21091,15.06,73894.5,-2.35,-3.27,-3.47,0,*59
1491325478.22,21092,15.06,73894.3,-2.35,-3.23,-3.47,0,*5E
1491325479.44,21093,15.06,73898.0,-2.35,-3.27,-3.47,0,*5B
1491325480.69,21094,15.06,73896.8,-2.37,-3.27,-3.51,0,*59
1491325481.92,21095,15.06,73892.3,-2.33,-3.15,-3.39,0,*53
1491325483.12,21096,15.06,73894.8,-2.35,-3.15,-3.35,0,*5A
1491325484.32,21097,15.06,73890.3,-2.35,-3.15,-3.27,0,*58
1491325485.53,21098,15.06,73888.8,-2.35,-3.27,-3.39,0,*59
1491325486.75,21099,15.06,73888.5,-2.35,-3.27,-3.47,0,*51
1491325487.95,21100,15.06,73888.8,-2.35,-3.15,-3.39,0,*58
1491325489.15,21101,15.06,73888.8,-2.35,-3.15,-3.27,0,*56
1491325490.35,21102,15.06,73882.8,-2.35,-3.15,-3.35,0,*56
1491325491.55,21103,15.06,73884.0,-2.35,-3.23,-3.35,0,*52
1491325492.74,21104,15.06,73890.8,-2.35,-3.23,-3.35,0,*55
1491325493.94,21105,15.06,73894.0,-2.35,-3.15,-3.39,0,*5D
1491325495.16,21106,15.06,73890.3,-2.33,-3.23,-3.35,0,*51
1491325496.38,21107,15.06,73890.8,-2.33,-3.23,-3.35,0,*50
1491325497.59,21108,15.06,73896.5,-2.35,-3.27,-3.39,0,*51
1491325498.79,21109,15.06,73884.8,-2.35,-3.27,-3.39,0,*50
1491325499.98,21110,15.06,73888.5,-2.35,-3.23,-3.39,0,*5C
1491325501.19,21111,15.06,73890.5,-2.35,-3.15,-3.35,0,*54
1491325502.44,21112,15.06,73886.3,-2.33,-3.27,-3.51,0,*52
1491325503.63,21113,15.06,73884.5,-2.35,-3.23,-3.35,0,*53
1491325504.82,21114,15.06,73884.5,-2.35,-3.23,-3.39,0,*58
1491325506.07,21115,15.06,73886.8,-2.33,-3.27,-3.47,0,*52
1491325507.32,21116,15.06,73880.0,-2.33,-3.27,-3.47,0,*51
1491325508.56,21117,15.06,73882.0,-2.33,-3.39,-3.47,0,*5F
1491325509.76,21118,15.06,73882.3,-2.35,-3.15,-3.35,0,*5D
1491325510.96,21119,15.06,73876.5,-2.35,-3.15,-3.35,0,*5C
1491325512.21,21120,15.06,73876.8,-2.33,-3.27,-3.47,0,*54
1491325513.43,21121,15.06,73874.8,-2.35,-3.35,-3.47,0,*50
1491325514.64,21122,15.06,73878.0,-2.35,-3.15,-3.27,0,*57
1491325515.86,21123,15.06,73882.5,-2.37,-3.19,-3.31,0,*5F
1491325517.08,21124,15.06,73882.0,-2.33,-3.15,-3.23,0,*53
1491325518.31,21125,15.06,73882.5,-2.37,-3.19,-3.27,0,*5E
1491325519.52,21126,15.06,73882.5,-2.33,-3.11,-3.23,0,*55
1491325520.74,21127,15.06,73882.5,-2.33,-3.11,-3.23,0,*54
1491325521.97,21128,15.06,73880.0,-2.33,-3.11,-3.27,0,*5F
1491325523.17,21129,15.06,73882.3,-2.35,-3.11,-3.27,0,*58
1491325524.4,21130,15.06,73880.3,-2.33,-3.11,-3.27,0,*56
1491325525.63,21131,15.06,73878.8,-2.33,-3.15,-3.35,0,*50
1491325526.87,21132,15.06,73874.0,-2.33,-3.23,-3.47,0,*53
1491325528.09,21133,15.06,73880.0,-2.33,-3.15,-3.39,0,*5E
1491325529.31,21134,15.06,73878.8,-2.33,-3.23,-3.35,0,*50
1491325530.54,21135,15.06,73874.0,-2.33,-3.27,-3.39,0,*59
1491325531.78,21136,15.06,73876.3,-2.33,-3.23,-3.47,0,*57
1491325532.98,21137,15.06,73882.8,-2.35,-3.23,-3.39,0,*59
1491325534.18,21138,15.06,73878.3,-2.35,-3.15,-3.27,0,*5C
1491325535.4,21139,15.06,73874.3,-2.33,-3.23,-3.35,0,*5D
1491325536.63,21140,15.06,73882.3,-2.33,-3.15,-3.27,0,*55
1491325537.83,21141,15.06,73868.5,-2.31,-3.11,-3.31,0,*55
1491325539.06,21142,15.06,73872.0,-2.33,-3.15,-3.35,0,*54
1491325540.28,21143,15.06,73872.0,-2.33,-3.23,-3.27,0,*53
1491325541.51,21144,15.06,73872.8,-2.33,-3.27,-3.39,0,*5F
1491325542.76,21145,15.06,73874.3,-2.33,-3.35,-3.47,0,*54
1491325543.98,21146,15.06,73876.8,-2.33,-3.15,-3.35,0,*50
1491325545.18,21147,15.06,73880.8,-2.35,-3.15,-3.35,0,*57
1491325546.44,21148,15.06,73884.8,-2.33,-3.35,-3.59,0,*56
1491325547.68,21149,15.06,73886.5,-2.33,-3.27,-3.47,0,*5B
1491325548.88,21150,15.06,73886.3,-2.35,-3.23,-3.35,0,*54
1491325550.1,21151,15.06,73890.5,-2.37,-3.19,-3.31,0,*5A
1491325551.3,21152,15.06,73886.5,-2.35,-3.15,-3.27,0,*50
1491325552.53,21153,15.06,73886.5,-2.33,-3.11,-3.27,0,*53
1491325553.74,21154,15.06,73878.0,-2.35,-3.11,-3.27,0,*52
1491325554.94,21155,15.06,73884.0,-2.35,-3.15,-3.27,0,*57
1491325556.14,21156,15.06,73884.3,-2.35,-3.15,-3.35,0,*57
1491325557.37,21157,15.06,73882.0,-2.33,-3.27,-3.27,0,*52
1491325558.57,21158,15.06,73886.0,-2.31,-3.11,-3.31,0,*5D
1491325559.8,21159,15.06,73880.5,-2.33,-3.15,-3.27,0,*5D
1491325561.02,21160,15.06,73894.3,-2.33,-3.15,-3.23,0,*53
1491325562.21,21161,15.06,73886.8,-2.35,-3.11,-3.23,0,*50
1491325563.42,21162,15.06,73884.5,-2.35,-3.11,-3.27,0,*57
1491325564.62,21163,15.06,73888.8,-2.35,-3.15,-3.27,0,*52
1491325565.87,21164,15.06,73890.3,-2.33,-3.27,-3.47,0,*54
1491325567.12,21165,15.06,73884.5,-2.33,-3.39,-3.51,0,*5D
1491325568.36,21166,15.06,73884.5,-2.33,-3.27,-3.47,0,*56
1491325569.56,21167,15.06,73880.0,-2.35,-3.23,-3.27,0,*53
1491325570.78,21168,15.06,73880.8,-2.33,-3.23,-3.35,0,*59
1491325572.0,21169,15.06,73886.3,-2.33,-3.15,-3.23,0,*5A
1491325573.19,21170,15.06,73884.8,-2.35,-3.23,-3.23,0,*51
1491325574.39,21171,15.06,73884.8,-2.35,-3.15,-3.15,0,*50
1491325575.59,21172,15.06,73884.5,-2.35,-3.11,-3.27,0,*56
1491325576.79,21173,15.0,73884.0,-2.35,-3.11,-3.27,0,*57
1491325577.99,21174,15.06,73888.5,-2.35,-3.11,-3.15,0,*51
1491325579.21,21175,15.06,73880.8,-2.33,-3.11,-3.15,0,*56
1491325580.4,21176,15.06,73884.8,-2.35,-3.23,-3.31,0,*54
1491325581.63,21177,15.06,73886.3,-2.33,-3.15,-3.35,0,*52
1491325582.86,21178,15.06,73890.0,-2.33,-3.15,-3.27,0,*5E
1491325584.08,21179,15.06,73886.8,-2.33,-3.15,-3.23,0,*5B
1491325585.3,21180,15.06,73886.8,-2.33,-3.15,-3.23,0,*5D
1491325586.52,21181,15.0,73882.5,-2.33,-3.23,-3.35,0,*5E
1491325587.74,21182,15.06,73874.3,-2.33,-3.23,-3.35,0,*5D
1491325588.96,21183,15.06,73884.5,-2.33,-3.23,-3.39,0,*50
1491325590.19,21184,15.06,73892.3,-2.33,-3.15,-3.27,0,*5D
1491325591.39,21185,15.06,73904.5,-2.35,-3.15,-3.39,0,*55
1491325592.61,21186,15.0,73888.0,-2.33,-3.23,-3.35,0,*59
1491325593.86,21187,15.06,73890.8,-2.33,-3.27,-3.47,0,*59
1491325595.09,21188,15.06,73882.5,-2.33,-3.27,-3.39,0,*5F
1491325596.29,21189,15.0,73884.3,-2.35,-3.15,-3.27,0,*56
1491325597.49,21190,15.0,73884.0,-2.35,-3.15,-3.35,0,*5D
1491325598.69,21191,15.06,73890.0,-2.35,-3.35,-3.39,0,*52
1491325599.94,21192,15.0,73898.3,-2.37,-3.39,-3.55,0,*55
1491325601.14,21193,15.0,73890.5,-2.35,-3.27,-3.35,0,*5F
1491325602.34,21194,15.06,73878.8,-2.35,-3.15,-3.35,0,*59
1491325603.54,21195,15.0,73886.3,-2.35,-3.15,-3.19,0,*56
1491325604.73,21196,15.06,73888.8,-2.35,-3.11,-3.23,0,*58
1491325605.93,21197,15.06,73886.8,-2.35,-3.15,-3.35,0,*5A
1491325607.17,21198,15.0,73886.8,-2.33,-3.15,-3.27,0,*50
1491325608.39,21199,15.0,73886.8,-2.33,-3.15,-3.23,0,*55
1491325609.61,21200,15.0,73890.5,-2.33,-3.15,-3.27,0,*52
1491325610.84,21201,15.06,73880.5,-2.33,-3.23,-3.27,0,*56
1491325612.04,21202,15.0,73892.8,-2.31,-3.07,-3.19,0,*5C
1491325613.23,21203,15.0,73890.5,-2.35,-3.07,-3.15,0,*55
1491325614.45,21204,15.0,73880.8,-2.33,-3.11,-3.15,0,*53
1491325615.67,21205,15.0,73880.5,-2.33,-3.11,-3.23,0,*57
1491325616.86,21206,15.06,73878.8,-2.35,-3.11,-3.23,0,*52
1491325618.06,21207,15.0,73876.5,-2.35,-3.11,-3.27,0,*57
1491325619.29,21208,15.0,73876.3,-2.33,-3.11,-3.15,0,*5F
1491325620.51,21209,15.0,73880.8,-2.33,-3.07,-3.15,0,*59
1491325621.73,21210,15.0,73882.5,-2.33,-3.07,-3.15,0,*51
1491325622.95,21211,15.0,73888.0,-2.33,-3.11,-3.15,0,*57
1491325624.17,21212,15.0,73884.5,-2.33,-3.11,-3.23,0,*51
1491325625.38,21213,15.0,73884.3,-2.33,-3.11,-3.23,0,*50
1491325626.58,21214,15.0,73882.0,-2.35,-3.11,-3.15,0,*54
1491325627.8,21215,15.0,73880.0,-2.33,-3.11,-3.15,0,*53
1491325629.0,21216,15.0,73886.3,-2.35,-3.11,-3.15,0,*56
1491325630.22,21217,15.0,73882.0,-2.33,-3.07,-3.15,0,*56
1491325631.44,21218,15.0,73886.0,-2.33,-3.11,-3.15,0,*5E
1491325632.66,21219,15.0,73892.8,-2.33,-2.99,-3.11,0,*5A
1491325633.89,21220,15.0,73878.8,-2.33,-3.07,-3.11,0,*56
1491325635.11,21221,15.0,73868.8,-2.33,-3.07,-3.11,0,*57
1491325636.33,21222,15.0,73874.8,-2.33,-3.07,-3.07,0,*53
1491325637.55,21223,15.0,73872.8,-2.33,-3.11,-3.15,0,*56
1491325638.75,21224,15.0,73874.8,-2.31,-3.03,-3.19,0,*5C
1491325639.97,21225,15.0,73882.8,-2.33,-3.11,-3.15,0,*50
1491325641.17,21226,15.0,73880.5,-2.31,-3.03,-3.11,0,*56
1491325642.38,21227,15.0,73880.8,-2.31,-2.95,-3.03,0,*5A
1491325643.61,21228,15.0,73874.8,-2.33,-2.95,-3.07,0,*53
1491325644.85,21229,15.0,73874.5,-2.33,-2.95,-2.99,0,*54
1491325646.06,21230,15.0,73872.8,-2.31,-2.95,-3.03,0,*5C
1491325647.26,21231,15.0,73876.8,-2.31,-2.95,-3.07,0,*59
1491325648.49,21232,15.0,73878.5,-2.33,-2.99,-3.07,0,*54
1491325649.71,21233,15.0,73876.8,-2.33,-3.11,-3.11,0,*53
1491325650.94,21234,15.0,73884.5,-2.33,-2.99,-3.11,0,*55
1491325652.16,21235,15.0,73888.0,-2.33,-3.11,-3.23,0,*54
1491325653.35,21236,15.0,73884.3,-2.31,-3.11,-3.19,0,*5C
1491325654.56,21237,15.0,73880.3,-2.31,-3.11,-3.11,0,*55
1491325655.76,21238,15.0,73886.3,-2.31,-3.03,-3.11,0,*59
1491325656.99,21239,15.0,73878.3,-2.33,-2.95,-3.07,0,*53
1491325658.22,21240,15.0,73880.3,-2.33,-2.95,-3.07,0,*5D
1491325659.44,21241,15.0,73878.8,-2.33,-3.07,-3.11,0,*51
1491325660.64,21242,15.0,73876.5,-2.31,-3.03,-3.03,0,*57
1491325661.85,21243,15.0,73886.0,-2.31,-2.95,-3.03,0,*58
1491325663.05,21244,15.0,73878.5,-2.31,-3.07,-3.07,0,*51
1491325664.25,21245,15.0,73886.3,-2.31,-3.03,-3.07,0,*54
1491325665.48,21246,15.0,73880.3,-2.33,-2.99,-3.07,0,*57
1491325666.71,21247,15.0,73884.3,-2.33,-2.95,-2.95,0,*50
1491325667.91,21248,15.0,73882.0,-2.31,-2.79,-2.79,0,*5D
1491325669.16,21249,15.0,73876.5,-2.33,-2.83,-2.75,0,*57
1491325670.36,21250,15.0,73878.0,-2.31,-2.79,-2.79,0,*54
1491325671.56,21251,15.0,73876.0,-2.31,-2.79,-2.79,0,*55
1491325672.78,21252,15.0,73882.3,-2.31,-2.67,-2.79,0,*59
1491325674.04,21253,15.0,73876.5,-2.31,-2.67,-2.67,0,*57
1491325675.29,21254,15.0,73886.0,-2.31,-2.67,-2.71,0,*57
1491325676.52,21255,15.0,73878.3,-2.31,-2.43,-2.47,0,*55
1491325677.71,21256,15.0,73880.3,-2.27,-2.39,-2.43,0,*58
1491325678.96,21257,15.0,73882.0,-2.29,-2.43,-2.47,0,*5E
1491325680.24,21258,15.0,73880.5,-2.29,-2.47,-2.55,0,*56
1491325681.43,21259,15.0,73884.3,-2.27,-2.39,-2.39,0,*5A
1491325682.63,21260,15.0,73884.3,-2.27,-2.39,-2.31,0,*58
1491325683.85,21261,15.0,73882.8,-2.29,-2.43,-2.35,0,*5E
1491325685.07,21262,15.0,73878.3,-2.29,-2.35,-2.35,0,*5C
1491325686.28,21263,15.0,73886.5,-2.27,-2.31,-2.31,0,*53
1491325687.48,21264,15.0,73880.0,-2.27,-2.39,-2.31,0,*5C
1491325688.68,21265,15.0,73880.3,-2.27,-2.39,-2.31,0,*5D
1491325689.87,21266,15.0,73876.5,-2.23,-2.39,-2.31,0,*5A
1491325691.07,21267,15.0,73878.8,-2.23,-2.39,-2.39,0,*53
1491325692.29,21268,15.0,73878.0,-2.21,-2.35,-2.39,0,*52
1491325693.51,21269,15.0,73876.5,-2.21,-2.35,-2.39,0,*53
1491325694.73,21270,15.0,73882.5,-2.23,-2.51,-2.43,0,*56
1491325695.95,21271,15.0,73882.8,-2.21,-2.39,-2.35,0,*5A
1491325697.17,21272,15.0,73882.3,-2.21,-2.39,-2.39,0,*55
1491325698.39,21273,15.0,73884.3,-2.21,-2.35,-2.39,0,*58
1491325699.62,21274,15.0,73884.5,-2.21,-2.35,-2.35,0,*53
1491325700.84,21275,15.0,73884.8,-2.21,-2.35,-2.35,0,*52
1491325702.08,21276,15.0,73884.0,-2.21,-2.39,-2.47,0,*58
1491325703.33,21277,15.0,73878.3,-2.21,-2.35,-2.47,0,*55
1491325704.52,21278,15.0,73882.0,-2.19,-2.39,-2.35,0,*58
1491325705.71,21279,15.0,73886.5,-2.19,-2.35,-2.35,0,*55